Total_Precipitation_Accumulation
0.00 0.01 0.01 0.02 0.02 0.03 0.06 0.09 0.18 0.23 0.17 0.18 0.33 0.51 0.65 0.74 0.96 1.09 1.08 1.05 1.07 1.36 1.73 1.93 2.24 2.63 3.33 3.94 4.53 4.63 4.79 4.20 3.51 3.00 2.59 2.41 2.17 1.91 1.82 1.69 1.51 1.40 1.26 1.20
0.02 0.04 0.03 0.02 0.03 0.05 0.09 0.12 0.20 0.22 0.15 0.16 0.33 0.60 0.78 0.86 0.83 0.90 0.90 0.93 0.98 1.37 1.79 2.17 2.70 3.02 2.99 3.40 4.02 4.03 3.67 3.35 2.86 2.40 2.17 2.00 1.89 1.68 1.50 1.29 1.17 1.07 1.03 1.05
0.04 0.05 0.03 0.03 0.05 0.10 0.12 0.14 0.18 0.16 0.15 0.21 0.39 0.74 1.02 0.95 0.69 0.63 0.67 0.71 0.86 1.20 1.62 2.03 2.51 2.87 2.79 3.03 3.08 2.65 2.36 2.30 2.19 1.92 1.80 1.75 1.68 1.48 1.20 0.95 0.82 0.78 0.78 0.77
0.03 0.03 0.03 0.04 0.06 0.07 0.08 0.08 0.07 0.07 0.12 0.28 0.42 0.93 1.29 1.10 0.81 0.65 0.64 0.73 0.80 0.90 1.06 1.35 1.62 2.00 2.20 2.20 2.09 1.94 1.81 1.74 1.83 1.76 1.59 1.47 1.20 1.02 0.84 0.70 0.71 0.71 0.65 0.59
0.03 0.03 0.03 0.04 0.05 0.05 0.05 0.04 0.05 0.08 0.12 0.27 0.47 0.79 1.16 1.15 1.08 0.90 0.75 0.74 0.66 0.61 0.66 0.81 0.92 1.12 1.35 1.49 1.52 1.43 1.60 1.68 1.66 1.57 1.46 1.40 1.16 0.93 0.78 0.74 0.78 0.74 0.67 0.59
0.05 0.05 0.04 0.03 0.04 0.04 0.04 0.05 0.12 0.25 0.37 0.69 0.68 0.72 1.05 1.00 0.93 0.91 0.73 0.57 0.46 0.41 0.49 0.59 0.60 0.68 0.80 0.90 0.99 1.06 1.21 1.41 1.43 1.36 1.29 1.26 1.16 0.97 0.79 0.70 0.68 0.63 0.58 0.55
0.14 0.12 0.09 0.05 0.05 0.05 0.05 0.09 0.32 0.69 1.00 1.16 0.72 0.68 0.88 0.75 0.76 0.79 0.57 0.35 0.30 0.31 0.36 0.45 0.46 0.46 0.52 0.57 0.65 0.74 0.85 0.99 1.08 1.12 1.10 1.08 1.11 0.96 0.78 0.60 0.56 0.51 0.44 0.43
0.15 0.18 0.10 0.05 0.05 0.06 0.06 0.07 0.19 0.34 0.49 0.68 0.72 1.08 1.00 0.62 0.58 0.47 0.28 0.18 0.18 0.26 0.26 0.27 0.29 0.31 0.36 0.35 0.43 0.51 0.56 0.64 0.74 0.89 1.00 0.91 0.92 0.80 0.68 0.69 0.60 0.48 0.38 0.40
0.07 0.06 0.05 0.05 0.05 0.07 0.05 0.05 0.06 0.10 0.15 0.42 0.79 1.15 0.93 0.50 0.45 0.30 0.19 0.12 0.13 0.15 0.17 0.17 0.18 0.18 0.22 0.24 0.28 0.34 0.47 0.57 0.59 0.63 0.77 0.82 0.79 0.73 0.72 0.73 0.65 0.52 0.44 0.38
0.04 0.02 0.04 0.05 0.05 0.07 0.06 0.06 0.06 0.07 0.15 0.32 0.65 1.00 1.00 0.69 0.51 0.31 0.20 0.15 0.16 0.15 0.15 0.15 0.13 0.13 0.18 0.21 0.25 0.34 0.43 0.53 0.62 0.61 0.60 0.63 0.74 0.76 0.79 0.76 0.62 0.55 0.49 0.45
0.04 0.02 0.03 0.04 0.06 0.08 0.08 0.08 0.09 0.10 0.12 0.21 0.48 0.70 0.57 0.52 0.38 0.27 0.23 0.24 0.19 0.14 0.12 0.11 0.10 0.12 0.18 0.21 0.26 0.32 0.40 0.56 0.68 0.62 0.62 0.68 0.76 0.79 0.79 0.88 0.80 0.63 0.57 0.51
0.05 0.03 0.04 0.08 0.11 0.10 0.10 0.10 0.11 0.14 0.16 0.17 0.26 0.43 0.36 0.37 0.30 0.29 0.23 0.23 0.18 0.15 0.13 0.12 0.12 0.15 0.20 0.26 0.30 0.35 0.43 0.53 0.60 0.63 0.66 0.68 0.74 0.75 0.72 0.75 0.79 0.72 0.60 0.52
0.06 0.05 0.07 0.21 0.31 0.22 0.14 0.10 0.11 0.13 0.13 0.16 0.29 0.44 0.37 0.33 0.28 0.23 0.19 0.19 0.20 0.23 0.20 0.18 0.18 0.24 0.24 0.27 0.35 0.40 0.47 0.53 0.58 0.70 0.71 0.66 0.66 0.61 0.59 0.61 0.63 0.66 0.66 0.66
0.07 0.06 0.08 0.22 0.33 0.35 0.26 0.17 0.16 0.13 0.14 0.16 0.23 0.39 0.36 0.39 0.36 0.23 0.23 0.26 0.28 0.29 0.23 0.19 0.21 0.25 0.30 0.33 0.39 0.43 0.50 0.55 0.62 0.63 0.61 0.60 0.61 0.62 0.66 0.67 0.65 0.64 0.64 0.67
0.09 0.07 0.05 0.09 0.16 0.19 0.21 0.20 0.18 0.13 0.11 0.16 0.19 0.28 0.33 0.34 0.41 0.32 0.33 0.42 0.45 0.30 0.19 0.16 0.17 0.23 0.34 0.40 0.40 0.42 0.48 0.52 0.59 0.66 0.64 0.58 0.57 0.61 0.66 0.68 0.68 0.67 0.65 0.65
0.15 0.11 0.10 0.10 0.12 0.12 0.14 0.17 0.15 0.11 0.09 0.08 0.13 0.24 0.30 0.38 0.43 0.38 0.35 0.33 0.43 0.35 0.24 0.22 0.20 0.22 0.30 0.36 0.37 0.35 0.39 0.47 0.55 0.63 0.70 0.72 0.67 0.62 0.65 0.69 0.68 0.69 0.68 0.73
0.28 0.22 0.21 0.21 0.16 0.16 0.22 0.19 0.16 0.13 0.11 0.11 0.19 0.29 0.36 0.43 0.41 0.41 0.42 0.35 0.35 0.30 0.25 0.25 0.28 0.30 0.31 0.36 0.35 0.35 0.34 0.42 0.58 0.67 0.69 0.79 0.87 0.80 0.84 0.86 0.82 0.81 0.82 0.88
0.37 0.38 0.31 0.27 0.30 0.36 0.26 0.19 0.18 0.21 0.22 0.21 0.24 0.34 0.47 0.56 0.46 0.42 0.44 0.44 0.38 0.28 0.27 0.28 0.27 0.28 0.30 0.33 0.36 0.37 0.39 0.44 0.58 0.70 0.74 0.86 1.00 0.95 0.97 0.96 0.95 0.99 1.06 1.09
0.38 0.46 0.46 0.41 0.42 0.42 0.34 0.30 0.30 0.37 0.43 0.37 0.40 0.53 0.56 0.48 0.42 0.44 0.42 0.38 0.34 0.30 0.30 0.28 0.29 0.29 0.31 0.37 0.39 0.43 0.53 0.63 0.72 0.81 0.92 1.02 1.14 1.19 1.19 1.18 1.20 1.25 1.33 1.38
0.33 0.44 0.54 0.54 0.58 0.62 0.53 0.42 0.40 0.50 0.77 0.62 0.51 0.54 0.51 0.47 0.54 0.53 0.40 0.35 0.31 0.28 0.29 0.31 0.36 0.36 0.37 0.42 0.48 0.54 0.67 0.84 0.97 0.99 1.00 1.07 1.24 1.33 1.36 1.36 1.43 1.48 1.54 1.58
0.50 0.52 0.56 0.61 0.67 0.60 0.53 0.47 0.51 0.87 1.12 0.79 0.67 0.70 0.74 0.72 0.65 0.54 0.43 0.40 0.36 0.30 0.32 0.36 0.40 0.46 0.50 0.56 0.65 0.76 0.84 0.94 0.97 0.98 1.01 1.10 1.31 1.55 1.58 1.64 1.64 1.64 1.65 1.70
0.66 0.68 0.66 0.72 0.90 0.92 0.61 0.56 0.86 1.09 1.00 0.97 0.88 0.88 0.87 0.75 0.58 0.47 0.42 0.42 0.35 0.33 0.36 0.38 0.41 0.45 0.52 0.62 0.76 0.86 0.89 0.90 0.96 1.00 1.06 1.20 1.43 1.53 1.62 1.76 1.77 1.84 1.84 1.77
0.70 0.80 0.81 0.88 1.04 0.94 0.77 0.82 0.84 0.90 0.97 0.97 0.84 0.79 0.78 0.73 0.61 0.52 0.46 0.44 0.42 0.40 0.40 0.43 0.45 0.49 0.54 0.64 0.80 0.94 0.96 0.97 0.99 1.00 1.06 1.17 1.29 1.37 1.49 1.55 1.52 1.56 1.64 1.64
0.74 0.68 0.86 1.13 1.14 1.00 0.88 0.81 0.79 0.70 0.70 0.71 0.67 0.57 0.56 0.56 0.52 0.44 0.38 0.42 0.48 0.53 0.50 0.50 0.49 0.52 0.55 0.59 0.74 0.88 0.92 0.95 0.96 0.94 0.94 1.04 1.19 1.24 1.31 1.42 1.44 1.51 1.56 1.60
0.78 0.78 0.96 1.24 1.26 1.13 1.05 0.93 0.91 0.76 0.70 0.61 0.56 0.52 0.51 0.44 0.41 0.37 0.33 0.32 0.36 0.42 0.42 0.43 0.43 0.46 0.51 0.58 0.73 0.84 0.90 0.97 1.02 0.99 0.94 0.99 1.08 1.18 1.24 1.36 1.44 1.45 1.46 1.41
0.59 0.79 1.03 1.17 1.11 1.07 1.09 0.88 0.85 0.88 0.77 0.63 0.56 0.50 0.46 0.39 0.35 0.31 0.29 0.27 0.26 0.33 0.39 0.41 0.44 0.47 0.48 0.53 0.63 0.73 0.89 1.06 1.12 1.06 0.99 0.95 0.96 1.05 1.11 1.20 1.20 1.10 1.07 1.01